When you browse on this site, cookies collect data to enhance your experience and personalize the content and advertising you see.
Visit our Privacy Policy to learn more. By continuing to use the site, you agree to this use of cookies and data.
  • In Sweden
  • List of Countries
  • For 7 days
  • Water Temperature
  • Satellite Maps
  • Weather Map
  • Weather Widgets
  • user-avatar
    Login

    Hourly Weather Akseki

    Today, 13 December, Thursday

    Time Temperature Precipitation Wind Pressure Humidity
    00:00 -4°C° 0 mm 2 mps 650 mmHg 79%
    01:00 -5°C° 0 mm 2 mps 650 mmHg 78%
    02:00 -5°C° 0 mm 3 mps 650 mmHg 76%
    03:00 -5°C° 0 mm 3 mps 650 mmHg 76%
    04:00 -4°C° 0 mm 2 mps 651 mmHg 76%
    05:00 -4°C° 0 mm 2 mps 651 mmHg 77%
    06:00 -4°C° 0 mm 2 mps 651 mmHg 75%
    07:00 -4°C° 0 mm 2 mps 652 mmHg 73%
    08:00 -4°C° 0 mm 2 mps 652 mmHg 71%
    09:00 -2°C° 0 mm 2 mps 652 mmHg 62%
    10:00 +2°C° 0 mm 1 mps 653 mmHg 53%
    11:00 +3°C° 0 mm 1 mps 653 mmHg 43%
    12:00 +4°C° 0 mm 1 mps 653 mmHg 41%
    13:00 +4°C° 0 mm 1 mps 653 mmHg 39%
    14:00 +5°C° 0 mm 1 mps 653 mmHg 38%
    15:00 +3°C° 0 mm 1 mps 653 mmHg 40%
    16:00 +2°C° 0 mm 1 mps 652 mmHg 43%
    17:00 0°C° 0 mm 1 mps 652 mmHg 45%
    18:00 0°C° 0 mm 1 mps 652 mmHg 44%
    19:00 -2°C° 0 mm 2 mps 652 mmHg 43%
    20:00 -1°C° 0 mm 2 mps 653 mmHg 42%
    21:00 -1°C° 0 mm 2 mps 653 mmHg 44%
    22:00 -1°C° 0 mm 2 mps 653 mmHg 46%
    23:00 -1°C° 0 mm 3 mps 653 mmHg 47%

    Tomorrow, 14 December, Friday

    Time Temperature Precipitation Wind Pressure Humidity
    00:00 -1°C° 0 mm 3 mps 653 mmHg 53%
    01:00 -1°C° 0 mm 3 mps 653 mmHg 58%
    02:00 0°C° 0 mm 3 mps 653 mmHg 63%
    03:00 0°C° 0.6 mm 3 mps 653 mmHg 70%
    04:00 +1°C° 0.6 mm 2 mps 653 mmHg 76%
    05:00 +1°C° 0.6 mm 2 mps 653 mmHg 83%
    06:00 +2°C° 0.6 mm 2 mps 653 mmHg 84%
    07:00 +2°C° 0.6 mm 2 mps 653 mmHg 85%
    08:00 +2°C° 0.6 mm 3 mps 653 mmHg 86%
    09:00 +3°C° 0.1 mm 3 mps 654 mmHg 85%
    10:00 +5°C° 0.1 mm 2 mps 654 mmHg 84%
    11:00 +6°C° 0.1 mm 2 mps 654 mmHg 82%
    12:00 +6°C° 0 mm 2 mps 654 mmHg 82%
    13:00 +7°C° 0 mm 2 mps 654 mmHg 81%
    14:00 +7°C° 0 mm 2 mps 654 mmHg 80%
    15:00 +6°C° 0 mm 2 mps 654 mmHg 84%
    16:00 +5°C° 0 mm 2 mps 654 mmHg 87%
    17:00 +5°C° 0 mm 1 mps 654 mmHg 90%
    18:00 +5°C° 0 mm 1 mps 654 mmHg 89%
    19:00 +3°C° 0 mm 2 mps 654 mmHg 89%
    20:00 +3°C° 0 mm 2 mps 654 mmHg 89%
    21:00 +3°C° 0 mm 2 mps 654 mmHg 88%
    22:00 +2°C° 0 mm 2 mps 654 mmHg 86%
    23:00 +2°C° 0 mm 2 mps 654 mmHg 85%

    Day after tomorrow, 15 December, Saturday

    Time Temperature Precipitation Wind Pressure Humidity
    00:00 +2°C° 0.1 mm 2 mps 654 mmHg 84%
    01:00 +3°C° 0.1 mm 2 mps 654 mmHg 83%
    02:00 +3°C° 0.1 mm 2 mps 654 mmHg 82%
    03:00 +4°C° 0.2 mm 1 mps 654 mmHg 83%
    04:00 +4°C° 0.2 mm 1 mps 654 mmHg 85%
    05:00 +4°C° 0.2 mm 1 mps 653 mmHg 86%
    06:00 +5°C° 0.1 mm 1 mps 654 mmHg 87%
    07:00 +5°C° 0.1 mm 1 mps 654 mmHg 87%
    08:00 +5°C° 0.1 mm 1 mps 654 mmHg 88%
    09:00 +6°C° 0.1 mm 1 mps 654 mmHg 86%
    10:00 +7°C° 0.1 mm 1 mps 654 mmHg 84%
    11:00 +8°C° 0.1 mm 1 mps 654 mmHg 82%
    12:00 +8°C° 0.1 mm 1 mps 654 mmHg 81%
    13:00 +8°C° 0.1 mm 1 mps 654 mmHg 80%
    14:00 +9°C° 0.1 mm 1 mps 653 mmHg 80%
    15:00 +7°C° 0 mm 1 mps 653 mmHg 82%
    16:00 +6°C° 0 mm 1 mps 652 mmHg 84%
    17:00 +5°C° 0 mm 1 mps 652 mmHg 87%
    18:00 +5°C° 0 mm 1 mps 652 mmHg 85%
    19:00 +5°C° 0 mm 1 mps 652 mmHg 84%
    20:00 +4°C° 0 mm 2 mps 652 mmHg 83%
    21:00 +3°C° 0 mm 2 mps 652 mmHg 80%
    22:00 +3°C° 0 mm 2 mps 651 mmHg 77%
    23:00 +3°C° 0 mm 2 mps 651 mmHg 74%

    16 December, Sunday

    Time Temperature Precipitation Wind Pressure Humidity
    00:00 +3°C° 0 mm 2 mps 651 mmHg 71%
    01:00 +3°C° 0 mm 2 mps 651 mmHg 69%
    02:00 +3°C° 0 mm 2 mps 650 mmHg 66%
    03:00 +2°C° 0 mm 2 mps 650 mmHg 66%
    04:00 +2°C° 0 mm 2 mps 649 mmHg 66%
    05:00 +2°C° 0 mm 2 mps 649 mmHg 66%
    06:00 +2°C° 0 mm 2 mps 649 mmHg 66%
    07:00 +3°C° 0 mm 2 mps 649 mmHg 66%
    08:00 +3°C° 0 mm 2 mps 649 mmHg 66%
    09:00 +5°C° 0 mm 2 mps 649 mmHg 64%
    10:00 +7°C° 0 mm 1 mps 650 mmHg 62%
    11:00 +8°C° 0 mm 1 mps 650 mmHg 60%
    12:00 +8°C° 0.1 mm 1 mps 649 mmHg 62%
    13:00 +8°C° 0.1 mm 1 mps 649 mmHg 64%
    14:00 +7°C° 0.1 mm 2 mps 648 mmHg 66%
    15:00 +6°C° 0.1 mm 2 mps 648 mmHg 70%
    16:00 +5°C° 0.1 mm 2 mps 648 mmHg 74%
    17:00 +4°C° 0.1 mm 2 mps 647 mmHg 77%
    18:00 +4°C° 0.4 mm 2 mps 648 mmHg 80%
    19:00 +4°C° 0.4 mm 2 mps 648 mmHg 82%
    20:00 +3°C° 0.4 mm 2 mps 648 mmHg 84%
    21:00 +3°C° 0.8 mm 2 mps 648 mmHg 85%
    22:00 +3°C° 0.8 mm 2 mps 648 mmHg 86%
    23:00 +3°C° 0.8 mm 2 mps 648 mmHg 86%

    17 December, Monday

    Time Temperature Precipitation Wind Pressure Humidity
    00:00 +3°C° 0.6 mm 2 mps 648 mmHg 86%
    01:00 +3°C° 0.6 mm 2 mps 648 mmHg 86%
    02:00 +3°C° 0.6 mm 2 mps 648 mmHg 86%
    03:00 +4°C° 0.2 mm 1 mps 648 mmHg 86%
    04:00 +4°C° 0.2 mm 1 mps 648 mmHg 86%
    05:00 +4°C° 0.2 mm 1 mps 648 mmHg 86%
    06:00 +4°C° 0.1 mm 1 mps 648 mmHg 86%
    07:00 +4°C° 0.1 mm 1 mps 649 mmHg 85%
    08:00 +5°C° 0.1 mm 1 mps 649 mmHg 85%
    09:00 +6°C° 0.1 mm 1 mps 649 mmHg 82%
    10:00 +7°C° 0.1 mm 1 mps 649 mmHg 79%
    11:00 +8°C° 0.1 mm 1 mps 650 mmHg 76%
    12:00 +8°C° 0.1 mm 1 mps 649 mmHg 75%
    13:00 +8°C° 0.1 mm 1 mps 649 mmHg 74%
    14:00 +9°C° 0.1 mm 1 mps 649 mmHg 73%
    15:00 +8°C° 0.1 mm 1 mps 649 mmHg 77%
    16:00 +7°C° 0.1 mm 1 mps 649 mmHg 82%
    17:00 +6°C° 0.1 mm 1 mps 649 mmHg 86%
    18:00 +5°C° 0.1 mm 1 mps 649 mmHg 87%
    19:00 +5°C° 0.1 mm 1 mps 649 mmHg 88%
    20:00 +5°C° 0.1 mm 1 mps 650 mmHg 88%
    21:00 +5°C° 0.1 mm 1 mps 650 mmHg 89%
    22:00 +4°C° 0.1 mm 1 mps 650 mmHg 89%
    23:00 +4°C° 0.1 mm 1 mps 650 mmHg 90%

    18 December, Tuesday

    Time Temperature Precipitation Wind Pressure Humidity
    00:00 +4°C° 0.1 mm 1 mps 650 mmHg 90%
    01:00 +4°C° 0.1 mm 1 mps 650 mmHg 90%
    02:00 +3°C° 0.1 mm 1 mps 650 mmHg 90%
    03:00 +3°C° 0 mm 1 mps 650 mmHg 90%
    04:00 +3°C° 0 mm 1 mps 650 mmHg 90%
    05:00 +3°C° 0 mm 1 mps 650 mmHg 89%
    06:00 +3°C° 0 mm 1 mps 650 mmHg 88%
    07:00 +3°C° 0 mm 1 mps 651 mmHg 87%
    08:00 +3°C° 0 mm 1 mps 651 mmHg 86%
    09:00 +5°C° 0 mm 1 mps 651 mmHg 81%
    10:00 +6°C° 0 mm 1 mps 652 mmHg 75%
    11:00 +8°C° 0 mm 1 mps 652 mmHg 70%
    12:00 +8°C° 0 mm 1 mps 652 mmHg 68%
    13:00 +8°C° 0 mm 1 mps 652 mmHg 66%
    14:00 +9°C° 0 mm 1 mps 651 mmHg 64%
    15:00 +7°C° 0 mm 1 mps 651 mmHg 70%
    16:00 +6°C° 0 mm 1 mps 651 mmHg 75%
    17:00 +4°C° 0 mm 1 mps 651 mmHg 81%
    18:00 +4°C° 0 mm 1 mps 651 mmHg 81%
    19:00 +4°C° 0 mm 1 mps 651 mmHg 82%
    20:00 +4°C° 0 mm 1 mps 651 mmHg 82%
    21:00 +3°C° 0 mm 2 mps 651 mmHg 79%
    22:00 +3°C° 0 mm 2 mps 651 mmHg 75%
    23:00 +2°C° 0 mm 2 mps 651 mmHg 72%
    Show more